When you browse on this site, cookies collect data to enhance your experience and personalize the content and advertising you see.
Visit our Privacy Policy to learn more. By continuing to use the site, you agree to this use of cookies and data.
  • In Schweiz
  • Länderverzeichnis
  • Für 7 Tage
  • Wassertemperatur
  • Wetterkarte
  • Widgets
  • user-avatar
    Anmelden

    Stündliche Wetter Bridgetown

    Heute, 23 Januar, Donnerstag

    Zeit Temperatur Niederschläge Wind Luftdruck Luftfeuchtigkeit
    00:00 +27°C° 0 mm 7 m/S 759 mmHg 81%
    01:00 +27°C° 0 mm 7 m/S 759 mmHg 81%
    02:00 +27°C° 0 mm 7 m/S 758 mmHg 82%
    03:00 +27°C° 0 mm 6 m/S 758 mmHg 83%
    04:00 +26°C° 0 mm 6 m/S 758 mmHg 83%
    05:00 +26°C° 0 mm 6 m/S 758 mmHg 84%
    06:00 +27°C° 0 mm 6 m/S 758 mmHg 83%
    07:00 +27°C° 0 mm 6 m/S 758 mmHg 82%
    08:00 +28°C° 0 mm 7 m/S 759 mmHg 81%
    09:00 +28°C° 0 mm 7 m/S 759 mmHg 79%
    10:00 +28°C° 0 mm 7 m/S 760 mmHg 77%
    11:00 +29°C° 0 mm 7 m/S 760 mmHg 75%
    12:00 +29°C° 0.1 mm 6 m/S 759 mmHg 75%
    13:00 +29°C° 0.1 mm 6 m/S 759 mmHg 75%
    14:00 +29°C° 0.1 mm 6 m/S 758 mmHg 74%
    15:00 +29°C° 0.2 mm 7 m/S 758 mmHg 76%
    16:00 +28°C° 0.2 mm 7 m/S 758 mmHg 78%
    17:00 +28°C° 0.2 mm 7 m/S 758 mmHg 79%
    18:00 +28°C° 0 mm 7 m/S 758 mmHg 81%
    19:00 +28°C° 0 mm 7 m/S 758 mmHg 82%
    20:00 +27°C° 0 mm 6 m/S 759 mmHg 83%
    21:00 +27°C° 0 mm 6 m/S 759 mmHg 84%
    22:00 +27°C° 0 mm 7 m/S 759 mmHg 84%
    23:00 +27°C° 0 mm 7 m/S 759 mmHg 85%

    Morgen, 24 Januar, Freitag

    Zeit Temperatur Niederschläge Wind Luftdruck Luftfeuchtigkeit
    00:00 +27°C° 0 mm 6 m/S 759 mmHg 85%
    01:00 +27°C° 0 mm 6 m/S 758 mmHg 86%
    02:00 +27°C° 0 mm 6 m/S 758 mmHg 87%
    03:00 +27°C° 0.2 mm 5 m/S 758 mmHg 87%
    04:00 +26°C° 0.2 mm 5 m/S 758 mmHg 87%
    05:00 +26°C° 0.2 mm 5 m/S 758 mmHg 87%
    06:00 +27°C° 0.3 mm 5 m/S 759 mmHg 85%
    07:00 +27°C° 0.3 mm 6 m/S 759 mmHg 82%
    08:00 +28°C° 0.3 mm 6 m/S 760 mmHg 80%
    09:00 +28°C° 0 mm 6 m/S 760 mmHg 78%
    10:00 +29°C° 0 mm 6 m/S 760 mmHg 76%
    11:00 +29°C° 0 mm 6 m/S 761 mmHg 73%
    12:00 +29°C° 0 mm 6 m/S 760 mmHg 73%
    13:00 +29°C° 0 mm 6 m/S 760 mmHg 73%
    14:00 +29°C° 0 mm 5 m/S 759 mmHg 72%
    15:00 +29°C° 0 mm 5 m/S 759 mmHg 74%
    16:00 +28°C° 0 mm 5 m/S 759 mmHg 75%
    17:00 +28°C° 0 mm 5 m/S 758 mmHg 76%
    18:00 +28°C° 0 mm 5 m/S 759 mmHg 77%
    19:00 +27°C° 0 mm 5 m/S 759 mmHg 77%
    20:00 +27°C° 0 mm 4 m/S 760 mmHg 78%
    21:00 +27°C° 0 mm 4 m/S 760 mmHg 79%
    22:00 +27°C° 0 mm 5 m/S 760 mmHg 81%
    23:00 +27°C° 0 mm 5 m/S 760 mmHg 82%

    übermorgen, 25 Januar, Samstag

    Zeit Temperatur Niederschläge Wind Luftdruck Luftfeuchtigkeit
    00:00 +26°C° 0 mm 5 m/S 760 mmHg 82%
    01:00 +26°C° 0 mm 5 m/S 759 mmHg 82%
    02:00 +26°C° 0 mm 5 m/S 759 mmHg 82%
    03:00 +26°C° 0 mm 4 m/S 759 mmHg 82%
    04:00 +26°C° 0 mm 4 m/S 759 mmHg 82%
    05:00 +26°C° 0 mm 4 m/S 759 mmHg 82%
    06:00 +26°C° 0 mm 5 m/S 760 mmHg 79%
    07:00 +27°C° 0 mm 5 m/S 760 mmHg 77%
    08:00 +27°C° 0 mm 6 m/S 761 mmHg 74%
    09:00 +28°C° 0 mm 6 m/S 761 mmHg 73%
    10:00 +28°C° 0 mm 6 m/S 761 mmHg 71%
    11:00 +28°C° 0 mm 6 m/S 761 mmHg 69%
    12:00 +29°C° 0 mm 5 m/S 761 mmHg 69%
    13:00 +29°C° 0 mm 5 m/S 760 mmHg 68%
    14:00 +29°C° 0 mm 5 m/S 760 mmHg 67%
    15:00 +28°C° 0 mm 5 m/S 759 mmHg 67%
    16:00 +28°C° 0 mm 4 m/S 759 mmHg 67%
    17:00 +28°C° 0 mm 4 m/S 759 mmHg 68%
    18:00 +27°C° 0 mm 4 m/S 759 mmHg 69%
    19:00 +27°C° 0 mm 4 m/S 760 mmHg 70%
    20:00 +27°C° 0 mm 4 m/S 760 mmHg 72%
    21:00 +26°C° 0 mm 5 m/S 760 mmHg 73%
    22:00 +26°C° 0 mm 5 m/S 760 mmHg 73%
    23:00 +26°C° 0 mm 5 m/S 760 mmHg 74%

    26 Januar, Sonntag

    Zeit Temperatur Niederschläge Wind Luftdruck Luftfeuchtigkeit
    00:00 +26°C° 0 mm 5 m/S 760 mmHg 76%
    01:00 +26°C° 0 mm 5 m/S 759 mmHg 77%
    02:00 +26°C° 0 mm 6 m/S 759 mmHg 79%
    03:00 +26°C° 0 mm 5 m/S 759 mmHg 77%
    04:00 +26°C° 0 mm 5 m/S 759 mmHg 76%
    05:00 +26°C° 0 mm 5 m/S 759 mmHg 74%
    06:00 +26°C° 0 mm 5 m/S 760 mmHg 74%
    07:00 +27°C° 0 mm 5 m/S 760 mmHg 74%
    08:00 +27°C° 0 mm 5 m/S 760 mmHg 73%
    09:00 +28°C° 0 mm 5 m/S 761 mmHg 71%
    10:00 +28°C° 0 mm 5 m/S 761 mmHg 69%
    11:00 +29°C° 0 mm 5 m/S 761 mmHg 67%
    12:00 +29°C° 0 mm 5 m/S 761 mmHg 66%
    13:00 +29°C° 0 mm 5 m/S 760 mmHg 66%
    14:00 +29°C° 0 mm 5 m/S 760 mmHg 66%
    15:00 +29°C° 0 mm 5 m/S 759 mmHg 69%
    16:00 +28°C° 0 mm 5 m/S 759 mmHg 72%
    17:00 +28°C° 0 mm 5 m/S 759 mmHg 75%
    18:00 +27°C° 0 mm 5 m/S 759 mmHg 78%
    19:00 +27°C° 0 mm 5 m/S 760 mmHg 81%
    20:00 +27°C° 0 mm 5 m/S 760 mmHg 84%
    21:00 +27°C° 0 mm 5 m/S 760 mmHg 84%
    22:00 +27°C° 0 mm 5 m/S 760 mmHg 83%
    23:00 +26°C° 0 mm 5 m/S 760 mmHg 83%

    27 Januar, Montag

    Zeit Temperatur Niederschläge Wind Luftdruck Luftfeuchtigkeit
    00:00 +26°C° 0 mm 5 m/S 760 mmHg 83%
    01:00 +26°C° 0 mm 5 m/S 760 mmHg 84%
    02:00 +26°C° 0 mm 5 m/S 759 mmHg 84%
    03:00 +26°C° 0 mm 5 m/S 759 mmHg 84%
    04:00 +26°C° 0 mm 5 m/S 759 mmHg 83%
    05:00 +26°C° 0 mm 5 m/S 759 mmHg 83%
    06:00 +27°C° 0 mm 5 m/S 760 mmHg 82%
    07:00 +27°C° 0 mm 5 m/S 760 mmHg 80%
    08:00 +27°C° 0 mm 5 m/S 761 mmHg 78%
    09:00 +28°C° 0 mm 6 m/S 761 mmHg 77%
    10:00 +28°C° 0 mm 6 m/S 761 mmHg 75%
    11:00 +29°C° 0 mm 6 m/S 761 mmHg 73%
    12:00 +29°C° 0 mm 6 m/S 761 mmHg 73%
    13:00 +29°C° 0 mm 6 m/S 760 mmHg 72%
    14:00 +29°C° 0 mm 6 m/S 760 mmHg 72%
    15:00 +29°C° 0 mm 6 m/S 759 mmHg 74%
    16:00 +28°C° 0 mm 6 m/S 759 mmHg 76%
    17:00 +28°C° 0 mm 6 m/S 759 mmHg 77%
    18:00 +28°C° 0 mm 6 m/S 759 mmHg 79%
    19:00 +27°C° 0 mm 6 m/S 760 mmHg 81%
    20:00 +27°C° 0 mm 6 m/S 760 mmHg 83%
    21:00 +27°C° 0 mm 6 m/S 760 mmHg 84%
    22:00 +27°C° 0 mm 6 m/S 760 mmHg 84%
    23:00 +27°C° 0 mm 6 m/S 760 mmHg 85%

    28 Januar, Dienstag

    Zeit Temperatur Niederschläge Wind Luftdruck Luftfeuchtigkeit
    00:00 +27°C° 0.5 mm 6 m/S 760 mmHg 85%
    01:00 +27°C° 0.5 mm 6 m/S 759 mmHg 86%
    02:00 +27°C° 0.5 mm 7 m/S 759 mmHg 86%
    03:00 +27°C° 0.3 mm 6 m/S 759 mmHg 86%
    04:00 +27°C° 0.3 mm 6 m/S 759 mmHg 86%
    05:00 +27°C° 0.3 mm 6 m/S 759 mmHg 86%
    06:00 +27°C° 0.2 mm 6 m/S 759 mmHg 84%
    07:00 +28°C° 0.2 mm 6 m/S 760 mmHg 82%
    08:00 +28°C° 0.2 mm 7 m/S 760 mmHg 80%
    09:00 +28°C° 0.1 mm 7 m/S 760 mmHg 79%
    10:00 +29°C° 0.1 mm 6 m/S 760 mmHg 78%
    11:00 +29°C° 0.1 mm 6 m/S 760 mmHg 77%
    12:00 +30°C° 0.1 mm 6 m/S 760 mmHg 75%
    13:00 +30°C° 0.1 mm 6 m/S 759 mmHg 74%
    14:00 +30°C° 0.1 mm 5 m/S 759 mmHg 73%
    15:00 +29°C° 0.1 mm 6 m/S 759 mmHg 74%
    16:00 +29°C° 0.1 mm 6 m/S 758 mmHg 76%
    17:00 +29°C° 0.1 mm 6 m/S 758 mmHg 78%
    18:00 +28°C° 0.4 mm 6 m/S 759 mmHg 79%
    19:00 +28°C° 0.4 mm 5 m/S 759 mmHg 81%
    20:00 +28°C° 0.4 mm 5 m/S 760 mmHg 82%
    21:00 +28°C° 0.3 mm 5 m/S 760 mmHg 82%
    22:00 +28°C° 0.3 mm 5 m/S 760 mmHg 82%
    23:00 +28°C° 0.3 mm 5 m/S 760 mmHg 83%
    Mehr zeigen